SL-16 DEB, 22335

Orbit data source: Space-Track

SL-16 DEB, 22335 is space debris in LEO originally from a launch on Fri, 25 Dec 1992 UTC launched from the Tyuratam Missile And Space Complex (TTMTR). Debris objects in space refer to the collection of defunct objects orbiting the Earth. Examples of debris include non-operational satellites, rocket bodies, and fragments generated from explosions, collisions, or faulty payload assembly.

Loading next visibility...
Identifier
22335, 1992-093Y
Orbit
LEO
Country
Flag of CISCIS
Related business
Manufacturer
Unknown
Mission
Spacecraft
Bus & Motor
Unknown
Mass
Unknown
Launch date (UTC)
1992-12-25 (33 years ago)
Launch vehicle
Unknown
Launch site
Tyuratam Missile And Space Complex (TTMTR)
Object type
Payload
Rocket body
Debris
Shape & HBR
Unknown shape, 0.7 m
Radar Cross Section
Medium (>0.1 m² and <1 m²)

Expand to show TLE details & history
Last TLE update: 1 day ago

TLE from 1 day ago
0 SL-16 DEB
1 22335U 92093Y   25296.48415794  .00000982  00000-0  67896-3 0  9992
2 22335  71.1631 293.3391 0113444 238.7052 238.4890 13.98469189667371
Epoch: 2025-10-23T11:37Z
TLE epoch observation values (Epoch: 2025-10-23T11:37:11.246Z)
Latitude
58.31728°
Longitude
-126.45783°
Altitude
952.24 km
Speed
7.359 km/s
True Right ascension
05h 19m 55s
True Declination
58° 10' 03"
Sunlit
Object was in partial shadow at epoch
Visualization orbit readout
Latitude
Unknown
Longitude
Unknown
Altitude
Unknown
Speed
Unknown
Apparent Right ascension
Unknown
Apparent Declination
Unknown
Sunlit
N/A
Visualization observer readout
Local Sidereal Time
12:58:35
Azimuth
Unknown
Elevation
Unknown
Doppler factor
Unknown
Orbital elements
Apogee altitude
979.558 km
Perigee altitude
814.493 km
Semi-major axis
7,275.163 km
Eccentricity
0.01134
Inclination
71.1631°
RAAN
293.3391°
Arg. of periapsis
238.7052°
True anomaly
237.38895°
Mean anomaly
238.489°
Eccentric anomaly
237.93815°
Mean motion
3.49767 °/min
Orbital period
102.93 mins
BSTAR
0.00067896
Loading maneuver chart data...
Computing Atmospheric mass density...

Documentation

Showing up to 5 results
|